Weather History for KCPS - November, 2012

Change the Weather History Date:

Thursday, November 1, 2012

  Actual Average Record
Temperature  
Mean Temperature 48 °F -  
Max Temperature 62 °F 52 °F 83 °F (1950)
Min Temperature 36 °F 38 °F 27 °F (2006)
Degree Days  
Heating Degree Days 16    
Moisture  
Dew Point 31 °F    
Average Humidity 57    
Maximum Humidity 86    
Minimum Humidity 36    
Precipitation  
Precipitation 0.00 in - - ()
Sea Level Pressure  
Sea Level Pressure 29.96 in    
Wind  
Wind Speed 3 mph (WSW)    
Max Wind Speed 6 mph    
Max Gust Speed -    
Visibility 10 miles    
Events      
Averages and records for this station are not official NWS values.
T = Trace of Precipitation, MM = Missing Value Source: NWS Daily Summary

Daily Weather History Graph

Daily Weather History Graph

Search for Another Location

Airport or City:

Trip Planner

Search our weather history database for the weather conditions in past years. The results will help you decide how hot, cold, wet, or windy it might be!

Date:

Astronomy

Nov. 01, 2012 Rise Set
Actual Time 7:27 AM CDT 6:00 PM CDT
Civil Twilight 7:00 AM CDT 6:27 PM CDT
Nautical Twilight 6:28 AM CDT 6:58 PM CDT
Astronomical Twilight 5:57 AM CDT 7:29 PM CDT
Moon 7:58 PM CDT (11/1) 9:58 AM CDT (11/1)
Length of Visible Light 11h 27m
Length of Day
10h 32m
Waning Gibbous, 93% of the Moon is Illuminated
Nov 1
Waning Gibbous
Nov 6
Last Quarter
Nov 13
New
Nov 20
First Quarter
Nov 28
Full

Hourly Weather History & Observations

Time (CDT) Temp. Windchill Dew Point Humidity Pressure Visibility Wind Dir Wind Speed Gust Speed Precip Events Conditions
12:53 AM 41.0 °F 38.0 °F 23.0 °F 49% 29.99 in 10.0 mi West 4.6 mph - N/A   Clear
1:53 AM 36.0 °F - 25.0 °F 64% 30.00 in 10.0 mi Calm Calm - N/A   Clear
2:53 AM 39.0 °F 34.8 °F 24.1 °F 55% 30.00 in 10.0 mi WSW 5.8 mph - N/A   Clear
3:53 AM 39.0 °F - 24.1 °F 55% 29.99 in 10.0 mi Calm Calm - N/A   Clear
4:53 AM 39.0 °F 36.8 °F 24.1 °F 55% 29.99 in 10.0 mi SW 3.5 mph - N/A   Clear
6:53 AM 37.0 °F - 25.0 °F 62% 30.01 in 10.0 mi Calm Calm - N/A   Partly Cloudy
7:53 AM 37.9 °F 35.5 °F 25.0 °F 60% 30.02 in 10.0 mi WSW 3.5 mph - N/A   Partly Cloudy
8:53 AM 41.0 °F 38.0 °F 27.0 °F 57% 30.03 in 10.0 mi WSW 4.6 mph - N/A   Partly Cloudy
9:53 AM 46.0 °F 43.9 °F 28.9 °F 51% 30.02 in 10.0 mi WSW 4.6 mph - N/A   Mostly Cloudy
10:53 AM 51.1 °F - 30.0 °F 44% 30.03 in 10.0 mi West 4.6 mph - N/A   Clear
11:53 AM 54.0 °F - 30.0 °F 40% 30.02 in 10.0 mi WNW 3.5 mph - N/A   Overcast
12:53 PM 57.9 °F - 30.9 °F 36% 29.98 in 10.0 mi West 4.6 mph - N/A   Overcast
1:53 PM 60.1 °F - 33.1 °F 36% 29.95 in 10.0 mi West 4.6 mph - N/A   Overcast
3:53 PM 61.0 °F - 36.0 °F 39% 29.91 in 10.0 mi SW 5.8 mph - N/A   Overcast
5:53 PM 59.0 °F - 37.9 °F 46% 29.88 in 10.0 mi South 3.5 mph - N/A   Overcast
6:53 PM 53.1 °F - 41.0 °F 64% 29.89 in 9.0 mi Calm Calm - N/A   Partly Cloudy
7:53 PM 50.0 °F - 39.0 °F 66% 29.89 in 10.0 mi Calm Calm - N/A   Clear
9:53 PM 45.0 °F - 39.0 °F 80% 29.89 in 10.0 mi Calm Calm - N/A   Clear
10:53 PM 41.0 °F 38.0 °F 37.0 °F 86% 29.89 in 10.0 mi NNE 4.6 mph - N/A   Clear
11:53 PM 42.1 °F - 37.9 °F 85% 29.90 in 10.0 mi Calm Calm - N/A   Clear